Other Public Products
Issued by NWS Grand Forks, ND

Home | Current Version | Previous Version | Graphics & Text | Print | Product List | Glossary On
Versions: 1 2 3 4 5 6 7 8 9 10 11 12 13 14 15 16 17 18 19 20 21 22 23 24 25 26 27 28 29 30 31 32 33 34 35 36 37 38 39 40 41 42 43 44 45 46 47 48 49 50
415
FPUS83 KFGF 260910
OPUFGF
PRAIRIE TO PINES WEATHER ROUNDUP
NATIONAL WEATHER SERVICE EASTERN NORTH DAKOTA/GRAND FORKS ND
400 AM CDT FRI AUG 26 2016

 **SATELLITE DATA USED TO AUGMENT SKY COVER AT AUTOMATED STATIONS**
 *****  WEATHER ACROSS EASTERN NORTH DAKOTA  *****

CITY           SKY/WX    TMP DP  RH WIND       PRES   REMARKS
GRAND FORKS    FAIR      48  45  89 SW7       30.06S
GRAND FORKS AF FAIR      50  48  92 W6        30.06S
GRAND CITY NWS NOT AVBL
BUXTON           N/A     52  51  99 W5          N/A
DEVILS LAKE    FAIR      57  52  83 SW9       30.09R
FARGO          FAIR      54  49  83 SW9       30.10S
WAHPETON ARPT  FAIR      52  48  87 W5        30.13S
$$

 *****  WEATHER ACROSS CENTRAL AND WESTERN NORTH DAKOTA  *****

CITY           SKY/WX    TMP DP  RH WIND       PRES   REMARKS
JAMESTOWN      FAIR      52  48  86 W7        30.11F
BISMARCK       FAIR      45  43  93 CALM      30.14S
MINOT          CLOUDY    58  46  64 SW9       30.05S
MINOT AFB      CLOUDY    55  46  71 SW7       30.03F
GARRISON         N/A     49  46  90 CALM      30.09S
WILLISTON      FAIR      47  38  71 CALM      30.08S
DICKINSON      FAIR      46  38  73 S6        30.12S
HETTINGER      FAIR      47  39  74 CALM      30.16F
$$

 *****  OTHER OBSERVATIONS NORTHEAST NORTH DAKOTA  *****

CITY           SKY/WX    TMP DP  RH WIND       PRES   REMARKS
WALHALLA       NOT AVBL
LANGDON        FAIR      45  43  93 S7        30.07S
CAVALIER       FAIR      46  45  93 CALM      30.05S
GRAFTON        FAIR      48  46  93 CALM      30.07S
CANDO          NOT AVBL
FORT TOTTEN      N/A     52  46  79 S2        29.95S
ROLLA          FAIR      48  45  87 W10       30.07S
RUGBY          NOT AVBL
 ***** THE ABOVE OBSERVATIONS ARE NON NWS ARE NOT QUALITY
        CONTROLLED AND MAY MIS-REPORT RAIN FOR SNOW...
$$

 *****  OTHER OBSERVATIONS SOUTHEAST NORTH DAKOTA *****

CITY           SKY/WX    TMP DP  RH WIND       PRES   REMARKS
COOPERSTOWN    NOT AVBL
VALLEY CITY    FAIR      52  52 100 SW7       30.13F
OAKES            N/A    N/A N/A N/A MISG        N/A
GWINNER        FAIR      52  52 100 SW8       30.14S
SHEYENNE NWR     N/A     48  47  97 W3        29.95S
BUFFALO          N/A     50  47  91 W3          N/A
WYNDMERE       NOT AVBL
 ***** THE ABOVE OBSERVATIONS ARE NON NWS ARE NOT QUALITY
       CONTROLLED AND MAY MIS-REPORT RAIN FOR SNOW...
$$

  *****  WEATHER ACROSS NORTHERN MINNESOTA  *****

CITY           SKY/WX    TMP DP  RH WIND       PRES   REMARKS
FLAG ISLAND    FAIR      57  52  82 CALM      30.05S
WARROAD        FAIR      48  45  87 SW5       30.07F
ROSEAU         FAIR      48  43  81 CALM      30.07S
HALLOCK        FAIR      50  48  93 SE5       30.05S
THF RVR FALLS  FAIR      49  47  93 S6        30.08F
HALSTAD          N/A     48  46  94 SW7         N/A
FOSSTON        FAIR      46  46 100 S6        30.10S
BAUDETTE       FAIR      48  46  93 CALM      30.07S
WASKISH        FAIR      50  48  93 CALM      30.08F
CROOKSTON      FAIR      46  46 100 S6        30.08S
$$
  *****  WEATHER ACROSS CENTRAL AND WEST MINNESOTA  *****

CITY           SKY/WX    TMP DP  RH WIND       PRES   REMARKS
BEMIDJI        FAIR      46  46  97 CALM      30.10F
PARK RAPIDS    MOCLDY    54  50  86 S3        30.12S
WADENA         NOT AVBL
DETROIT LAKES  FAIR      55  52  88 CALM      30.13S
MOORHEAD       FAIR      52  48  87 S3        30.12S
FERGUS FALLS   FAIR      54  54 100 CALM      30.15F
ELBOW LAKE     FAIR      52  52  97 CALM      30.14S
MORRIS MN      FAIR      50  48  93 CALM      30.14S
STAPLES        CLOUDY    54  52  94 CALM      30.13S
WHEATON        NOT AVBL
$$
  *****  WEATHER ELSEWHERE ACROSS MINNESOTA  *****

CITY           SKY/WX    TMP DP  RH WIND       PRES   REMARKS
DULUTH         CLOUDY    58  54  86 NW7       30.09S
INTRNTL FALLS  FAIR      42  41  96 CALM      30.08S FOG
ELY            CLOUDY    52  50  93 CALM      30.09R
CLOQUET        FAIR      54  50  87 W6        30.11S
BRAINERD       FAIR      51  50  96 CALM      30.13S
HIBBING        CLOUDY    55  53  93 CALM      30.09F
ALEXANDRIA     FAIR      54  52  93 W5        30.16S
SAINT CLOUD    FAIR      51  51 100 CALM      30.14R FOG
MINNEAPOLIS    FAIR      59  54  83 SW3       30.14S
$$

  *****  WEATHER ACROSS SOUTH DAKOTA  *****

CITY           SKY/WX    TMP DP  RH WIND       PRES   REMARKS
SIOUX FALLS    MOCLDY    53  52  96 CALM      30.17S
BROOKINGS      FAIR      50  48  93 CALM      30.18R
WATERTOWN      FAIR      51  50  96 CALM      30.17S
HURON          FAIR      48  46  93 CALM      30.17S
SISSETON         N/A     51  49  92 CALM      30.13S
ABERDEEN       FAIR      46  44  93 CALM      30.16S
MITCHELL       FAIR      51  49  92 W3        30.18F
PIERRE         FAIR      46  43  89 CALM      30.15F
MOBRIDGE       FAIR      52  46  80 S5        30.14S
RAPID CITY     LGT RAIN  51  50  96 SE8       30.17F
$$

  *****  SOME WEATHER IN NEARBY STATES *****

CITY           SKY/WX    TMP DP  RH WIND       PRES   REMARKS
GLASGOW MT     FAIR      54  46  74 NW8       30.07F
GREAT FALLS MT CLOUDY    53  44  71 W6        30.19F
CHEYENNE WY    MOCLDY    52  46  80 W3        30.20F
SCOTTSBLUFF NE CLOUDY    56  49  77 E8        30.16F
OMAHA NE       MOCLDY    60  57  89 N6        30.14S
DES MOINES IA  MOCLDY    65  61  87 N5        30.13S
DAVENPORT IA   FAIR      63  61  93 N5        30.13R
CHICAGO IL     FAIR      67  61  81 N8        30.10R
EAU CLAIRE WI  FAIR      56  54  93 S3        30.12S
LA CROSSE WI   FAIR      58  58 100 N3        30.13S
$$

  *****  SOME NATIONAL WEATHER *****

CITY           SKY/WX    TMP DP  RH WIND       PRES   REMARKS
LA GUARDIA NY  FAIR      78  70  76 S7        29.96F
RALEIGH NC     FAIR      73  70  90 SW7       30.09S
ATLANTA GA     FAIR      76  71  85 CALM      30.11F
NEW ORLEANS LA FAIR      82  77  84 NE5       30.00F HX  90
OKLAHOMA CITY  MOCLDY    70  66  87 N9        30.09F
ALBUQUERQUE NM MOCLDY    67  47  48 N5        30.20S
SALT LAKE CITY FAIR      70  36  28 SE15      30.02S
LOS ANGELES CA CLOUDY    66  60  81 SW3       29.92S
BOISE ID       FAIR      60  32  34 S3        29.96F
SEATTLE WA     FAIR      70  52  52 SE3       29.97S
$$

*** WEATHER ACROSS MANITOBA...SASKATCHEWAN AND ONTARIO ***
                ***ONTARIO***

CITY           SKY/WX    TMP DP  RH WIND       PRES   REMARKS
GERALDTON      PTCLDY    50  50 100 NW7       29.99R
THUNDER BAY    PTCLDY    54  52  94 NW9       30.03R
SIOUX LOOKOUT  CLEAR     48  48 100 SW5       30.05R
TORONTO        MOCLDY    70  64  83 NW6       30.01R
BIG TROUT LK   CLEAR     55  52  88 W7        29.86R
PICKLE LAKE    NOT AVBL
DRYDEN         CLEAR     52  50  93 SW7       30.06S
KENORA         NOT AVBL
$$
                *** MANITOBA***

CITY           SKY/WX    TMP DP  RH WIND       PRES   REMARKS
BRANDON        CLEAR     45  43  93 SW2       30.03S
DAUPHIN        CLEAR     54  48  82 SW6       29.97F
ISLAND LAKE    PTCLDY    59  54  82 SW6       29.89S
PILOT MOUND      N/A     46  43  87 S6          N/A
THE PAS        CLOUDY    55  50  82 S3        29.89S
THOMPSON       MOCLDY    52  50  93 NW3       29.87R
WINNIPEG       CLEAR     52  46  82 CALM      30.03F
LYNN LAKE      CLOUDY    52  48  87 MISG      29.93S
CHURCHILL      CLOUDY    46  45  93 N12G18    29.87R
GILLAM         CLOUDY    52  45  76 NE7       29.84R
$$
                ***SASKATCHEWAN***

CITY           SKY/WX    TMP DP  RH WIND       PRES   REMARKS
ESTEVAN        NOT AVBL
KINDERSLEY     LGT RAIN  54  54 100 NW9       30.02F
LLOYDMINSTER   CLEAR     50  48  93 NW8       30.04F FOG
PRINCE ALBERT  NOT AVBL
REGINA         MOCLDY    50  48  93 SW7       30.01F
YORKTON        MOCLDY    52  48  87 S8        29.97F   C1F1C2F2C3F3C4F4C5F5C6F6C7F7C8F8C9F9CaFaCbFbCcFcCdFdCe!



USA.gov is the U.S. government's official web portal to all federal, state and local government web resources and services.